CW9803 Weather Reports


time (UTC)temp
F
wind
direction
speed
knots
gust
knots
rain 1hr
in
rain 24hr
in
rain mn
in
humidity
%
barometer
mb
20260504194704 78 289 4.3 7.0 0.00 0.00 0.00 27 1005.8
20260504194200 78 277 2.6 3.5 0.00 0.00 0.00 29 1005.9
20260504193656 78 340 7.0 8.7 0.00 0.00 0.00 30 1006.2
20260504193154 78 263 2.6 6.1 0.00 0.00 0.00 28 1005.8
20260504192652 78 188 0.9 1.7 0.00 0.00 0.00 36 1006.0
20260504192150 77 109 0.9 0.9 0.00 0.00 0.00 39 1006.4
20260504191648 77 116 1.7 1.7 0.00 0.00 0.00 41 1006.1
20260504191144 77 148 0.0 0.0 0.00 0.00 0.00 40 1006.1
20260504190640 75 129 0.0 0.9 0.00 0.00 0.00 42 1006.2
20260504190137 75 127 0.0 0.9 0.00 0.00 0.00 43 1006.5
20260504185633 75 133 1.7 2.6 0.00 0.00 0.00 44 1006.7
20260504185130 73 158 0.9 0.9 0.00 0.00 0.00 43 1006.4
20260504184626 73 143 0.9 0.9 0.00 0.00 0.00 45 1006.5
20260504184121 73 142 0.9 0.9 0.00 0.00 0.00 45 1006.5
20260504183619 72 152 3.5 3.5 0.00 0.00 0.00 47 1006.6
20260504183116 72 139 0.9 1.7 0.00 0.00 0.00 44 1006.7
20260504182614 71 158 2.6 2.6 0.00 0.00 0.00 45 1006.7
20260504182111 71 139 1.7 1.7 0.00 0.00 0.00 46 1006.8
20260504181608 71 103 1.7 1.7 0.00 0.00 0.00 44 1007.0
20260504181106 70 130 0.9 0.9 0.00 0.00 0.00 45 1006.8
20260504180605 71 152 2.6 2.6 0.00 0.00 0.00 45 1006.9
20260504180103 69 145 1.7 2.6 0.00 0.00 0.00 45 1007.0
20260504175600 69 130 1.7 1.7 0.00 0.00 0.00 46 1007.0
20260504175057 69 133 1.7 2.6 0.00 0.00 0.00 48 1007.0
20260504174555 69 147 1.7 2.6 0.00 0.00 0.00 47 1007.0
20260504174051 68 130 1.7 2.6 0.00 0.00 0.00 49 1006.9
20260504173548 67 124 2.6 2.6 0.00 0.00 0.00 49 1007.1
20260504173046 67 150 2.6 3.5 0.00 0.00 0.00 49 1007.0
20260504172541 67 124 1.7 2.6 0.00 0.00 0.00 52 1007.0
20260504172038 66 146 1.7 2.6 0.00 0.00 0.00 51 1007.2
20260504171535 65 122 2.6 2.6 0.00 0.00 0.00 52 1007.3
20260504171032 65 135 2.6 3.5 0.00 0.00 0.00 54 1007.2
20260504170527 64 174 2.6 3.5 0.00 0.00 0.00 55 1007.1
20260504160443 58 131 0.0 0.0 0.00 0.00 0.00 58 1008.1
20260504150906 53 114 0.0 0.0 0.00 0.00 0.00 68 1008.6
20260504150403 52 126 0.0 0.0 0.00 0.00 0.00 71 1008.6
20260504141333 46 115 0.0 0.0 0.00 0.00 0.00 82 1008.4
20260504140829 45 116 0.0 0.0 0.00 0.00 0.00 84 1008.5
20260504140325 46 115 0.0 0.0 0.00 0.00 0.00 83 1008.5
20260504130754 39 122 0.0 0.0 0.00 0.00 0.00 95 1008.2
20260504130250 39 133 0.0 0.0 0.00 0.00 0.00 96 1008.4
20260504120214 41 131 0.0 0.0 0.00 0.00 0.00 93 1008.4
20260504110641 40 109 0.0 0.0 0.00 0.00 0.00 93 1008.5
20260504110137 40 116 0.0 0.0 0.00 0.00 0.00 93 1008.5
20260504100557 41 116 0.0 0.0 0.00 0.00 0.00 92 1008.2
20260504081950 43 119 0.0 0.0 0.00 0.00 0.00 89 1008.6
20260504081448 44 119 0.0 0.0 0.00 0.00 0.00 89 1008.6
20260504080943 44 119 0.0 0.0 0.00 0.00 0.00 88 1008.6
20260504080440 44 119 0.0 0.0 0.00 0.00 0.00 88 1008.7
20260504070408 46 119 0.0 0.0 0.00 0.00 0.00 85 1008.8
20260504050749 52 112 0.0 0.0 0.00 0.00 0.00 72 1009.0
20260504050247 53 153 0.0 0.0 0.00 0.00 0.00 71 1008.6
20260504045739 54 155 0.0 0.0 0.00 0.00 0.00 70 1008.7
20260504045233 54 156 0.0 0.0 0.00 0.00 0.00 69 1008.6
20260504044731 54 146 0.0 0.0 0.00 0.00 0.00 70 1008.8
20260504044228 54 145 0.0 0.0 0.00 0.00 0.00 69 1008.8
20260504043725 55 114 0.0 0.0 0.00 0.00 0.00 68 1008.6
20260504043222 55 113 0.0 0.0 0.00 0.00 0.00 67 1008.6
20260504042720 55 110 0.0 0.0 0.00 0.00 0.00 66 1008.5
20260504042216 56 156 0.0 0.0 0.00 0.00 0.00 65 1008.5
20260504041712 56 149 0.0 0.0 0.00 0.00 0.00 65 1008.5
20260504041208 56 153 0.0 0.0 0.00 0.00 0.00 66 1008.5
20260504040705 57 169 0.0 0.9 0.00 0.00 0.00 63 1008.4
20260504040202 57 105 0.0 0.0 0.00 0.00 0.00 62 1008.2
20260504035658 58 148 0.0 0.0 0.00 0.00 0.00 61 1008.4
20260504035155 59 150 0.0 0.0 0.00 0.00 0.00 60 1008.2
20260504034647 59 156 0.0 0.0 0.00 0.00 0.00 60 1008.5
20260504034144 59 147 0.0 0.0 0.00 0.00 0.00 60 1008.0
20260504033642 59 117 0.0 0.0 0.00 0.00 0.00 61 1008.3
20260504033139 59 115 0.0 0.0 0.00 0.00 0.00 58 1008.1
20260504032635 60 122 0.0 0.0 0.00 0.00 0.00 57 1008.0
20260504032133 61 168 0.0 0.0 0.00 0.00 0.00 56 1008.0
20260504031630 61 179 0.9 0.9 0.00 0.00 0.00 55 1008.1
20260504031126 62 139 0.0 0.0 0.00 0.00 0.00 54 1007.9
20260504030623 63 125 0.0 0.0 0.00 0.00 0.00 52 1008.1
20260504030120 64 118 0.0 0.0 0.00 0.00 0.00 50 1007.9
20260504025617 65 130 0.0 0.0 0.00 0.00 0.00 47 1008.0
20260504025113 66 145 0.0 0.0 0.00 0.00 0.00 48 1008.1
20260504024611 66 52 0.9 1.7 0.00 0.00 0.00 44 1008.0
20260504024107 67 87 0.9 0.9 0.00 0.00 0.00 44 1007.8
20260504023604 68 93 0.0 0.0 0.00 0.00 0.00 42 1007.9
20260504023100 70 154 0.9 0.9 0.00 0.00 0.00 39 1008.0
20260504022556 71 337 1.7 2.6 0.00 0.00 0.00 37 1007.8
20260504022052 72 246 0.9 1.7 0.00 0.00 0.00 37 1007.8
20260504021550 72 284 1.7 1.7 0.00 0.00 0.00 38 1007.7
20260504021047 72 147 0.9 0.9 0.00 0.00 0.00 36 1007.8
20260504020544 73 132 0.9 0.9 0.00 0.00 0.00 35 1007.8
20260504020040 74 104 0.9 1.7 0.00 0.00 0.00 36 1008.0
20260504015537 74 100 0.9 0.9 0.00 0.00 0.00 36 1008.0
20260504015032 74 153 0.9 0.9 0.00 0.00 0.00 35 1008.0
20260504014529 75 172 1.7 1.7 0.00 0.00 0.00 35 1008.0
20260504014026 76 166 0.9 0.9 0.00 0.00 0.00 34 1007.9
20260504013524 75 12 1.7 1.7 0.00 0.00 0.00 34 1007.8
20260504013021 75 204 1.7 2.6 0.00 0.00 0.00 33 1008.0
20260504012518 76 299 2.6 2.6 0.00 0.00 0.00 33 1008.0
20260504012016 76 253 2.6 2.6 0.00 0.00 0.00 32 1008.1
20260504011512 76 282 2.6 3.5 0.00 0.00 0.00 33 1007.9
20260504011008 76 249 0.9 2.6 0.00 0.00 0.00 32 1007.9
20260504010504 77 322 2.6 2.6 0.00 0.00 0.00 31 1007.9
20260504010000 77 274 4.3 5.2 0.00 0.00 0.00 31 1008.0
20260504005457 77 299 5.2 6.1 0.00 0.00 0.00 31 1008.2
20260504004954 77 14 2.6 2.6 0.00 0.00 0.00 31 1008.1
20260504004452 77 316 7.8 9.6 0.00 0.00 0.00 29 1008.4
20260504003949 78 78 3.5 3.5 0.00 0.00 0.00 31 1008.2
20260504003445 78 273 6.1 7.8 0.00 0.00 0.00 29 1008.2
20260504002942 78 187 0.9 1.7 0.00 0.00 0.00 30 1008.3
20260504002439 78 250 2.6 3.5 0.00 0.00 0.00 30 1008.3
20260504001936 78 296 3.5 7.0 0.00 0.00 0.00 28 1008.5
20260504001434 78 337 7.0 9.6 0.00 0.00 0.00 28 1008.3
20260504000930 78 108 2.6 3.5 0.00 0.00 0.00 28 1008.4
20260504000427 79 170 0.9 1.7 0.00 0.00 0.00 28 1008.3
20260503235924 78 284 5.2 7.8 0.00 0.00 0.00 26 1008.3
20260503235422 79 302 2.6 3.5 0.00 0.00 0.00 25 1008.4
20260503234920 79 259 4.3 6.1 0.00 0.00 0.00 26 1008.3
20260503234417 79 120 1.7 1.7 0.00 0.00 0.00 26 1008.3
20260503233915 80 321 2.6 2.6 0.00 0.00 0.00 25 1008.4
20260503233411 79 237 3.5 6.1 0.00 0.00 0.00 26 1008.3
20260503232907 79 243 4.3 6.1 0.00 0.00 0.00 23 1008.3
20260503232405 80 296 2.6 3.5 0.00 0.00 0.00 24 1008.3
20260503231903 80 294 4.3 7.8 0.00 0.00 0.00 24 1008.3
20260503231400 80 301 6.1 8.7 0.00 0.00 0.00 26 1008.4
20260503230855 79 320 3.5 6.1 0.00 0.00 0.00 25 1008.3
20260503230352 80 227 6.1 7.8 0.00 0.00 0.00 25 1008.6
20260503225850 81 278 4.3 6.1 0.00 0.00 0.00 24 1008.6
20260503225346 80 264 7.0 8.7 0.00 0.00 0.00 24 1008.5
20260503224842 80 263 1.7 2.6 0.00 0.00 0.00 27 1008.5
20260503224340 81 68 3.5 5.2 0.00 0.00 0.00 25 1008.6
20260503223837 82 294 4.3 6.1 0.00 0.00 0.00 24 1008.6
20260503223335 81 328 4.3 7.0 0.00 0.00 0.00 25 1008.5
20260503222830 82 343 5.2 7.8 0.00 0.00 0.00 24 1008.5
20260503222329 82 261 3.5 5.2 0.00 0.00 0.00 26 1008.7
20260503221827 82 10 2.6 2.6 0.00 0.00 0.00 24 1008.7
20260503221325 83 152 2.6 3.5 0.00 0.00 0.00 23 1008.7
20260503220815 81 154 0.0 0.0 0.00 0.00 0.00 24 1008.8
20260503220312 79 175 0.9 1.7 0.00 0.00 0.00 28 1008.8
20260503215809 80 186 1.7 1.7 0.00 0.00 0.00 27 1009.1
20260503215306 81 307 3.5 3.5 0.00 0.00 0.00 27 1009.1
20260503214804 81 150 0.0 0.9 0.00 0.00 0.00 27 1009.0
20260503214301 80 203 1.7 1.7 0.00 0.00 0.00 29 1009.4
20260503213758 81 156 1.7 1.7 0.00 0.00 0.00 27 1009.5
20260503213255 82 74 2.6 2.6 0.00 0.00 0.00 28 1009.3
20260503212752 82 1 1.7 2.6 0.00 0.00 0.00 28 1009.4
20260503212250 81 168 0.9 0.9 0.00 0.00 0.00 29 1009.3
20260503211747 81 159 3.5 3.5 0.00 0.00 0.00 31 1009.7
20260503211243 81 156 1.7 1.7 0.00 0.00 0.00 29 1009.6
20260503210739 81 138 0.0 0.9 0.00 0.00 0.00 32 1009.7
20260503210237 80 128 0.0 0.9 0.00 0.00 0.00 28 1009.6
20260503205732 82 143 0.0 0.0 0.00 0.00 0.00 28 1009.6
20260503205228 79 157 0.9 1.7 0.00 0.00 0.00 30 1009.8
20260503204724 80 295 2.6 3.5 0.00 0.00 0.00 28 1009.9
20260503204223 80 152 0.9 1.7 0.00 0.00 0.00 26 1009.9
20260503203719 80 43 3.5 3.5 0.00 0.00 0.00 27 1010.1
20260503203217 79 252 2.6 2.6 0.00 0.00 0.00 28 1009.8
20260503202714 80 195 2.6 2.6 0.00 0.00 0.00 28 1010.1
20260503202212 78 144 0.9 0.9 0.00 0.00 0.00 28 1009.9
20260503201709 79 38 2.6 2.6 0.00 0.00 0.00 27 1010.1
20260503201207 79 184 1.7 1.7 0.00 0.00 0.00 28 1010.3
20260503200703 80 233 2.6 2.6 0.00 0.00 0.00 28 1010.1
20260503200159 78 154 0.0 0.9 0.00 0.00 0.00 29 1010.4
20260503195656 79 266 2.6 2.6 0.00 0.00 0.00 30 1010.5
20260503195153 79 157 0.9 0.9 0.00 0.00 0.00 31 1010.6